Temperature
15 16 16 16 17 17 19 21 23 22 22 21 21 22 21 19 19 16 14 14 14 14 14 14 14 14 14 14 14 14 14 14 14 14 14 14 14 14 14 14 14 14 14 15 15 15 14 14 15
15 15 16 17 17 18 20 21 21 21 21 20 21 21 21 18 16 15 14 14 14 14 14 14 14 14 14 14 14 14 14 14 14 14 14 14 14 14 14 14 14 14 14 14 14 14 14 14 14
15 15 16 17 18 19 20 21 20 20 20 20 20 20 19 17 15 14 14 14 13 13 13 13 14 14 14 14 14 14 14 14 14 14 14 14 14 14 14 14 14 14 14 14 14 14 14 14 14
15 15 17 17 18 20 20 20 20 20 20 20 20 19 17 15 15 14 14 13 13 13 13 13 13 13 13 13 13 13 14 13 14 14 14 14 14 14 14 14 14 14 14 14 14 14 14 14 14
15 16 16 17 18 19 20 20 20 20 20 20 19 18 15 14 14 14 13 13 13 13 13 13 13 13 13 13 13 13 13 13 14 14 14 14 14 14 14 14 14 14 14 14 14 14 14 14 14
15 17 16 17 18 19 19 20 20 20 19 19 19 18 15 14 14 13 13 13 13 12 12 13 13 13 13 13 13 13 13 13 13 13 13 13 13 14 13 14 14 14 14 14 14 14 14 14 14
15 15 16 18 18 19 19 19 19 18 18 18 18 17 14 14 13 13 13 12 12 12 12 12 12 12 13 13 13 13 13 13 13 13 13 13 13 13 13 13 13 13 13 13 13 13 14 13 13
14 15 16 17 18 18 18 18 18 17 17 17 17 16 14 13 13 13 12 12 12 12 12 12 12 12 12 12 12 12 13 13 13 13 13 13 13 13 13 13 13 13 13 13 13 13 13 13 13
14 14 15 16 17 17 17 17 17 16 16 16 15 15 14 13 13 12 12 12 11 11 11 11 11 11 12 12 12 12 12 12 12 12 12 12 12 12 12 12 12 12 12 13 13 12 12 12 12
14 13 15 16 16 16 16 16 16 16 16 15 15 14 13 13 12 12 12 11 11 11 11 11 11 11 11 11 12 12 12 12 12 12 12 12 12 12 12 12 12 12 12 12 12 12 12 12 12
14 13 14 15 15 15 15 15 15 15 14 15 14 13 13 12 12 12 11 11 11 11 11 11 11 11 11 11 11 11 11 11 11 11 11 11 11 11 11 11 11 11 12 12 12 11 11 11 11
14 14 14 14 13 13 14 14 14 14 14 14 14 13 12 12 12 11 11 11 11 11 10 10 11 11 11 11 11 11 11 11 11 11 11 11 11 11 11 11 11 11 11 11 11 11 11 11 11
13 13 13 13 13 13 13 13 13 13 13 13 13 13 12 12 11 11 11 11 10 10 10 10 10 10 10 10 10 10 10 10 10 10 10 10 11 10 10 10 10 10 10 11 11 10 10 10 10
13 13 13 13 13 12 12 12 12 13 13 12 12 12 12 11 11 11 10 10 10 10 10 10 10 10 10 10 10 10 10 10 10 10 10 10 10 10 10 10 10 10 10 10 10 10 10 10 10
11 11 12 12 13 12 12 11 12 12 12 12 12 12 11 11 11 10 10 10 10 10 9 9 9 9 9 10 9 9 9 9 9 9 10 9 9 10 9 9 9 9 10 10 9 9 9 9 10
11 11 11 12 12 12 11 10 12 12 12 12 12 11 11 11 10 10 9 9 9 9 9 9 9 9 9 9 9 9 9 9 9 9 9 9 9 9 9 9 9 9 9 9 9 9 9 9 9
10 10 11 11 12 12 11 10 12 12 11 11 11 11 11 10 10 9 9 9 8 8 8 9 8 8 8 8 8 8 8 8 8 8 8 8 8 9 9 9 8 9 9 8 8 8 8 8 9
10 10 11 11 11 11 10 10 11 11 11 11 11 10 10 10 9 9 8 8 8 8 8 8 8 8 8 8 8 8 8 8 8 8 8 8 8 8 8 8 8 8 8 8 8 8 8 8 8
10 10 10 11 11 10 9 10 11 11 11 10 10 10 9 9 9 8 8 7 7 7 7 7 7 7 7 7 7 7 7 7 7 7 7 7 7 8 8 8 8 8 8 8 7 7 7 7 7
10 9 10 10 10 9 9 9 10 10 10 10 10 9 9 8 8 7 7 7 7 7 7 7 7 7 7 7 7 6 6 6 7 7 7 7 7 7 7 7 7 7 7 7 7 7 7 7 6
9 9 9 8 9 9 8 8 9 10 10 9 9 9 8 8 7 7 6 6 6 6 6 6 6 6 6 6 6 6 6 6 6 6 6 6 6 6 6 6 6 6 6 6 6 6 6 6 6
8 9 9 8 7 7 8 7 9 9 8 8 8 8 7 7 6 6 6 5 5 6 6 6 6 6 6 6 5 5 5 5 5 5 5 5 5 6 6 6 6 6 6 6 6 6 6 5 5
7 8 8 8 7 6 7 6 7 9 8 7 7 7 7 6 6 5 5 5 5 5 5 5 5 5 5 5 5 5 4 4 4 4 4 5 5 5 5 5 5 5 5 5 5 5 5 5 5
7 7 7 7 6 5 7 7 7 8 8 7 7 7 6 6 5 5 5 4 4 4 5 5 5 5 4 4 4 4 4 4 4 4 4 4 4 4 4 5 5 5 5 5 5 4 4 4 4
6 6 6 6 6 6 8 7 7 7 8 7 6 6 6 5 5 5 4 4 4 4 4 4 4 4 4 4 4 3 3 3 3 3 3 3 4 4 4 4 4 4 4 4 4 4 4 3 3
6 6 5 6 6 7 7 6 7 7 7 7 7 6 5 5 5 4 4 3 3 3 3 3 3 3 3 3 3 3 3 3 3 3 3 3 3 3 3 3 4 4 4 3 3 3 3 3 3
5 5 5 5 5 5 6 7 7 7 6 6 6 6 5 4 4 4 3 3 3 3 3 3 3 3 3 3 3 3 3 2 2 3 3 3 3 3 3 3 3 3 3 3 3 3 3 3 3
5 5 4 4 5 6 7 7 6 5 5 5 5 5 4 4 4 3 3 3 2 2 2 2 2 2 2 2 2 2 2 2 2 2 2 2 2 2 2 2 2 2 2 2 2 2 2 2 2
4 4 4 4 5 5 5 6 6 5 5 5 4 5 4 4 3 3 3 2 2 2 2 2 2 2 2 2 2 2 2 2 2 2 2 2 2 2 2 2 2 2 2 2 2 2 2 2 2
5 4 3 3 4 4 4 5 6 5 5 5 5 5 4 4 3 3 2 2 2 2 1 1 2 1 1 1 1 1 1 1 1 1 1 1 1 1 1 1 1 1 1 1 1 1 1 1 1
Wind_Speed
13 11 7 3 3 6 9 6 3 1 1 3 5 4 3 4 4 6 4 5 8 8 10 10 9 8 8 8 8 8 7 7 7 7 7 6 6 6 6 7 7 7 8 7 7 7 8 8 8
11 7 4 3 5 7 7 6 3 1 3 3 3 3 2 5 6 7 4 6 7 8 10 9 9 8 8 7 7 7 7 6 6 6 6 6 6 6 6 6 6 6 6 7 7 7 7 7 6
8 7 4 4 6 8 3 3 4 3 3 1 1 3 3 4 6 5 5 5 7 8 10 9 9 8 8 7 6 6 6 6 6 5 5 5 5 4 5 5 5 5 5 6 6 6 6 5 5
4 3 4 6 11 8 3 1 3 4 2 1 2 3 4 5 4 6 6 5 7 7 10 9 8 7 7 7 7 6 6 5 5 5 4 4 4 4 4 4 4 5 4 5 5 5 5 4 4
4 4 6 8 12 6 2 2 1 2 3 2 1 2 4 4 8 8 6 5 7 7 9 9 8 7 7 6 6 6 5 5 5 5 4 3 3 3 4 4 4 4 4 3 3 3 3 3 2
4 4 6 10 9 5 3 1 2 2 0 1 1 0 4 5 7 6 5 4 6 7 7 8 7 6 6 5 5 5 4 4 4 4 4 4 2 2 3 3 3 3 3 3 2 2 1 1 1
4 4 8 9 7 5 3 1 3 2 1 1 1 1 5 5 6 5 5 4 6 7 6 7 6 5 5 5 4 4 3 3 3 3 3 3 3 1 2 2 2 2 2 2 1 1 0 0 1
4 4 8 8 8 5 1 1 2 2 2 2 2 0 4 5 5 5 4 5 5 5 5 4 5 4 4 4 4 3 2 2 2 2 2 2 2 1 1 1 2 2 1 1 1 1 1 1 2
4 5 7 5 4 2 1 2 1 1 2 1 2 3 5 8 5 4 4 4 4 4 3 3 3 3 3 3 3 3 2 1 1 1 1 1 1 1 1 1 2 2 1 0 1 1 1 2 3
4 5 6 3 4 3 2 2 2 1 3 2 2 5 7 6 5 4 3 3 3 3 2 3 2 2 2 1 2 2 2 1 0 1 1 1 1 1 2 1 2 2 1 1 1 1 1 2 3
4 6 5 4 5 4 4 4 3 3 4 3 1 5 6 5 5 4 3 2 3 2 2 2 2 2 1 1 0 0 1 1 0 1 1 1 1 2 1 1 0 1 2 1 1 2 2 2 2
5 6 6 4 3 4 4 4 4 4 4 3 2 3 5 6 5 4 3 2 2 2 2 2 2 1 1 1 0 0 1 0 0 0 1 2 1 1 1 1 1 1 1 1 2 2 2 2 3
8 6 5 4 4 5 5 5 5 5 3 2 1 1 3 4 4 3 2 1 2 2 3 2 2 1 1 0 0 0 0 0 1 0 0 1 1 1 1 1 1 2 1 1 2 2 1 2 2
3 4 5 6 6 5 5 7 6 6 2 2 2 3 3 3 2 2 2 2 1 2 2 2 1 1 1 1 0 0 0 1 0 1 1 1 1 1 1 2 1 1 2 2 2 2 2 2 2
3 5 7 7 7 4 3 8 8 5 3 4 4 4 3 3 3 2 2 1 1 2 2 1 1 1 1 1 0 1 0 1 1 1 1 1 1 1 1 1 1 1 2 3 2 2 2 2 2
5 5 5 5 6 4 5 8 4 4 3 5 4 3 3 3 3 2 2 2 1 2 2 2 0 0 0 1 1 1 1 1 1 1 1 1 1 1 1 1 1 1 2 2 2 2 1 2 2
4 5 6 4 5 3 6 7 3 4 4 5 4 3 3 2 2 2 2 2 2 2 2 2 1 0 0 0 1 1 0 0 0 1 1 1 1 1 1 1 1 1 1 2 2 2 1 2 2
3 5 6 5 3 4 7 8 4 4 4 5 4 3 3 3 2 1 2 3 2 2 2 1 1 1 0 0 0 1 0 0 1 0 1 1 1 1 1 1 1 1 1 1 1 2 2 2 2
5 6 8 5 1 4 8 10 8 4 4 5 4 4 3 3 1 2 2 3 3 2 2 1 1 1 1 0 0 0 1 1 1 1 1 1 1 1 1 1 1 1 1 2 2 2 2 2 2
6 7 6 4 1 4 7 11 9 6 6 5 5 4 3 2 1 2 2 2 2 1 1 1 1 0 0 0 1 1 1 1 2 1 1 1 1 2 2 1 1 1 1 2 2 1 1 2 1
6 6 5 5 5 6 6 8 7 5 5 3 2 2 1 1 1 1 2 1 1 1 1 1 1 0 1 1 0 1 1 1 1 1 1 2 2 2 2 2 2 2 2 2 2 2 2 2 2
6 4 4 5 4 3 3 5 5 5 5 4 3 2 1 1 1 1 1 0 0 0 0 1 1 1 1 1 0 1 1 2 2 2 2 2 3 2 2 2 3 2 2 2 3 2 2 2 3
3 3 4 5 5 4 5 5 6 4 5 5 4 3 1 1 1 1 1 1 1 1 0 0 1 1 0 0 1 1 2 2 2 2 2 2 2 2 2 3 3 3 2 2 2 3 3 3 3
2 3 4 4 3 5 7 6 5 3 5 4 4 3 2 1 1 1 1 1 1 1 0 0 1 1 1 1 1 2 2 2 2 2 2 2 2 2 3 3 3 3 2 3 3 3 4 3 3
2 1 1 1 3 5 4 5 4 1 1 2 4 4 3 2 1 1 1 1 1 1 0 0 0 1 1 1 1 2 2 3 3 3 2 2 2 2 3 3 3 3 3 3 3 3 3 3 3
3 2 2 3 3 2 1 5 2 2 3 3 4 4 2 1 1 1 1 1 1 1 1 1 1 1 1 1 2 2 2 2 2 3 2 2 2 3 3 3 3 3 3 3 3 3 3 3 3
2 3 1 1 3 3 5 3 1 2 3 3 3 3 2 0 1 2 2 2 2 1 1 1 1 1 1 1 1 2 2 2 2 2 2 2 2 3 3 3 3 3 3 3 3 3 3 3 3
2 1 1 2 2 4 5 4 3 3 2 2 1 1 1 1 0 1 2 2 2 1 1 1 1 1 1 1 1 2 1 1 2 2 2 2 3 3 3 4 3 3 3 3 3 3 3 3 3
2 2 2 3 3 3 4 3 1 3 4 3 2 2 2 2 1 0 1 1 1 1 1 1 1 1 1 1 1 1 1 2 2 2 3 3 3 3 3 4 4 3 3 3 3 3 3 3 3
2 3 3 2 4 3 3 4 2 3 3 3 2 2 2 2 1 1 0 1 2 2 1 1 1 1 1 1 1 1 2 2 2 2 3 2 3 3 3 3 3 4 3 3 3 4 3 3 4
Wind_Direction
302 274 251 247 238 233 239 233 237 175 80 35 15 9 26 23 24 106 145 92 92 99 107 102 93 89 83 78 78 76 79 84 85 83 84 81 81 84 84 84 81 77 72 70 72 76 76 77 77
294 278 253 240 237 235 231 213 216 60 77 68 26 356 31 77 77 101 112 93 97 99 100 100 96 92 87 81 77 79 74 77 83 83 82 82 79 80 84 84 81 76 72 68 66 74 76 76 78
276 265 247 235 235 240 226 119 115 108 101 122 102 1 15 70 90 103 110 109 97 96 96 98 100 94 89 84 81 80 80 73 75 83 81 79 78 77 83 83 83 78 74 70 66 70 73 74 78
265 236 241 245 245 248 265 69 104 129 122 90 141 115 80 43 72 105 112 112 102 97 97 101 101 96 92 84 79 78 81 75 69 76 87 83 78 78 80 84 82 81 79 75 69 73 73 73 81
242 241 232 238 245 248 281 4 350 220 168 161 224 127 100 76 90 102 113 111 103 95 96 106 102 99 94 88 84 80 81 77 70 66 64 77 84 83 80 87 86 84 81 80 72 74 77 74 81
248 239 237 237 240 224 222 290 267 276 178 138 161 135 110 109 97 107 111 105 101 98 98 109 108 103 99 94 90 84 82 82 73 64 58 52 67 85 87 92 93 90 87 77 72 72 76 73 89
258 251 250 257 256 236 211 265 289 304 284 45 50 136 134 124 111 119 119 105 95 98 101 106 117 112 106 97 91 87 90 88 77 65 57 51 43 73 98 96 108 103 92 80 67 50 37 321 265
279 277 255 253 253 245 215 218 295 332 323 0 356 289 130 137 124 124 121 110 98 96 97 107 114 115 116 114 110 97 99 97 84 69 55 43 33 37 75 101 137 129 119 95 40 298 275 277 270
261 252 250 256 268 264 98 264 264 42 306 311 40 45 95 119 124 130 128 121 109 105 104 105 105 100 105 131 131 131 123 119 117 68 48 33 4 5 310 219 186 175 175 198 243 273 260 265 260
226 239 247 293 316 310 303 290 286 255 249 243 148 106 110 125 142 158 162 154 138 138 124 101 102 95 78 93 136 158 155 138 169 88 53 329 333 314 315 248 206 190 203 226 235 246 251 256 247
223 243 263 294 333 333 302 298 292 258 258 277 213 148 148 159 170 178 188 166 153 144 121 105 94 94 85 52 90 123 116 130 343 63 350 341 11 355 5 9 251 210 199 210 244 243 250 257 263
239 251 262 275 314 308 296 297 278 264 278 330 339 142 157 171 183 191 200 183 152 141 144 123 112 112 90 54 16 90 99 86 343 97 347 14 9 338 343 318 304 241 227 235 257 263 259 267 266
237 246 258 262 268 273 279 269 275 263 285 330 54 119 171 182 192 191 186 154 146 135 129 132 137 134 122 90 360 11 42 63 6 4 288 28 352 293 310 309 303 283 278 229 262 274 269 276 274
267 261 259 255 246 247 260 264 252 253 244 242 197 212 203 202 198 184 164 164 137 114 115 122 131 131 122 114 165 167 38 356 5 34 343 13 7 322 302 303 302 308 325 289 263 259 262 268 274
278 265 252 235 233 227 260 262 231 223 216 223 218 215 200 189 184 189 164 140 115 99 87 88 162 114 100 93 345 26 60 7 13 15 277 305 354 348 310 293 282 304 318 305 292 280 283 276 286
244 248 248 215 214 206 217 253 228 182 200 229 225 214 209 189 179 157 133 126 114 98 92 78 5 111 106 61 330 2 65 48 2 346 297 312 330 335 320 288 275 305 312 295 277 258 277 286 291
218 244 251 235 208 221 225 254 220 176 203 230 230 218 216 200 183 158 143 132 123 110 104 93 67 55 101 34 336 342 34 180 292 316 334 324 305 301 310 277 267 274 275 281 284 294 287 290 295
247 258 262 250 211 250 251 262 252 213 214 229 229 220 215 216 202 144 118 111 104 91 96 104 67 22 37 167 316 336 330 294 332 317 318 279 277 290 315 273 259 269 244 259 278 287 291 281 283
287 281 273 277 251 258 256 266 263 233 223 222 223 221 218 214 168 123 114 106 107 98 94 107 95 8 24 91 270 293 301 312 305 299 297 289 296 304 304 266 234 247 236 252 264 283 281 285 302
275 279 282 302 301 271 271 269 262 233 230 221 222 219 212 203 155 146 120 105 107 107 86 61 23 326 143 129 261 271 263 261 255 279 291 266 273 279 279 256 225 226 234 250 258 271 277 287 301
265 260 277 295 309 266 275 276 244 225 204 196 206 198 161 144 166 141 116 114 100 76 66 26 343 302 137 92 263 312 314 285 303 294 284 266 254 255 257 256 238 227 219 228 235 229 244 267 280
267 288 288 286 289 274 239 279 251 214 201 200 196 191 178 161 174 149 129 54 55 61 54 21 316 305 123 100 190 253 262 273 271 273 269 272 260 244 245 258 245 229 221 226 240 247 244 238 261
292 319 282 265 263 281 242 251 267 204 218 212 196 188 178 148 157 158 159 236 344 38 51 321 312 317 95 160 226 246 263 262 274 287 281 274 272 256 245 252 242 228 222 219 228 246 244 240 241
310 299 276 247 246 259 227 220 264 224 220 195 185 181 165 144 149 154 150 113 43 28 151 195 282 308 302 243 246 238 256 270 283 293 287 285 282 266 255 256 246 237 228 224 228 237 239 246 245
293 300 311 255 227 243 197 211 246 217 66 144 168 167 147 139 114 70 45 49 33 16 87 176 286 288 290 271 263 252 258 262 260 268 271 288 289 280 263 267 248 240 242 243 238 236 241 239 243
246 240 213 248 263 291 233 231 231 120 80 80 119 130 127 115 85 40 41 31 9 357 356 346 294 281 289 278 274 279 270 265 266 272 271 271 277 276 275 269 269 264 251 253 240 236 240 242 243
233 228 270 274 280 273 245 230 180 91 90 97 106 120 121 102 40 32 32 26 9 5 343 321 307 290 299 295 294 285 289 291 282 281 291 284 282 290 295 288 278 268 253 245 241 242 240 238 244
282 303 126 199 264 266 254 230 222 179 192 182 151 154 169 148 59 6 5 13 14 357 351 342 326 306 298 312 295 297 295 294 296 297 295 291 292 297 300 300 287 274 256 251 251 255 250 243 251
184 199 219 239 250 257 279 269 76 163 173 181 199 191 187 169 188 271 313 4 14 15 22 15 348 326 311 302 295 308 310 308 302 289 287 292 296 296 292 291 286 278 271 259 255 257 254 253 260
224 205 186 210 254 243 265 279 57 103 132 147 188 190 196 166 164 205 195 46 25 16 4 348 334 310 294 295 306 312 307 299 291 290 294 302 300 297 290 287 287 283 281 275 262 262 264 258 261
Height
1487 1488 1490 1493 1494 1493 1486 1475 1470 1473 1474 1478 1479 1480 1482 1486 1490 1501 1501 1500 1500 1500 1501 1502 1503 1504 1505 1506 1507 1508 1509 1510 1511 1512 1513 1513 1514 1515 1515 1516 1516 1517 1518 1518 1519 1519 1520 1520 1521
1487 1489 1492 1492 1493 1492 1481 1473 1473 1475 1477 1479 1481 1482 1484 1489 1493 1496 1497 1499 1499 1500 1501 1501 1503 1504 1505 1506 1507 1508 1508 1509 1510 1511 1512 1513 1513 1514 1515 1515 1516 1516 1517 1518 1518 1519 1519 1520 1520
1487 1489 1492 1489 1486 1482 1476 1472 1474 1476 1478 1480 1482 1485 1487 1492 1494 1495 1497 1498 1499 1500 1500 1501 1502 1503 1504 1505 1506 1507 1508 1509 1510 1511 1511 1512 1513 1513 1514 1515 1515 1516 1516 1517 1517 1518 1518 1519 1519
1488 1490 1490 1488 1482 1474 1472 1472 1473 1476 1479 1480 1482 1486 1490 1493 1494 1495 1496 1498 1499 1499 1500 1501 1502 1503 1504 1505 1505 1506 1507 1508 1509 1510 1511 1511 1512 1513 1513 1514 1514 1515 1516 1516 1517 1517 1518 1518 1519
1488 1488 1488 1485 1478 1473 1472 1473 1475 1476 1478 1481 1482 1485 1490 1493 1493 1494 1495 1497 1498 1499 1499 1500 1501 1502 1503 1504 1505 1505 1506 1507 1508 1509 1510 1510 1511 1512 1512 1513 1513 1514 1515 1515 1516 1516 1517 1517 1518
1488 1485 1486 1483 1475 1472 1473 1475 1476 1477 1479 1481 1483 1486 1490 1492 1493 1494 1495 1497 1498 1498 1499 1499 1500 1501 1502 1503 1504 1504 1505 1506 1507 1508 1508 1509 1510 1510 1511 1512 1512 1513 1513 1514 1514 1515 1516 1516 1517
1487 1484 1481 1476 1474 1473 1474 1476 1477 1478 1479 1482 1483 1486 1489 1491 1492 1493 1495 1496 1497 1497 1498 1498 1499 1500 1501 1502 1502 1503 1504 1505 1506 1507 1507 1508 1508 1509 1510 1510 1511 1511 1512 1512 1513 1514 1514 1515 1515
1484 1483 1478 1474 1474 1474 1475 1476 1478 1480 1481 1483 1484 1485 1488 1490 1491 1492 1494 1495 1496 1496 1497 1497 1498 1499 1499 1500 1501 1502 1503 1504 1504 1505 1506 1506 1506 1507 1508 1508 1509 1510 1510 1511 1511 1512 1512 1513 1514
1483 1485 1479 1474 1474 1475 1475 1477 1479 1480 1481 1482 1484 1485 1487 1488 1490 1492 1493 1494 1494 1495 1496 1496 1497 1497 1498 1499 1499 1500 1501 1502 1503 1503 1504 1504 1505 1505 1506 1506 1507 1508 1508 1509 1509 1510 1510 1511 1512
1482 1482 1476 1475 1474 1475 1476 1477 1479 1480 1481 1482 1484 1485 1486 1487 1489 1490 1491 1492 1492 1493 1494 1494 1495 1496 1497 1497 1498 1498 1499 1500 1501 1501 1502 1502 1503 1503 1503 1504 1505 1505 1506 1506 1507 1507 1508 1509 1509
1478 1477 1476 1476 1476 1477 1477 1478 1479 1480 1481 1481 1482 1483 1484 1486 1488 1489 1490 1491 1491 1491 1492 1492 1493 1494 1495 1495 1496 1496 1497 1498 1499 1499 1499 1500 1500 1501 1501 1502 1502 1503 1503 1504 1504 1505 1505 1506 1506
1476 1475 1476 1476 1477 1478 1478 1478 1479 1479 1480 1480 1481 1482 1483 1485 1486 1487 1488 1489 1489 1490 1490 1490 1491 1492 1493 1493 1494 1494 1495 1495 1496 1496 1497 1498 1498 1498 1499 1499 1499 1500 1500 1501 1501 1502 1502 1503 1504
1475 1475 1476 1476 1477 1477 1478 1478 1478 1477 1478 1478 1479 1480 1481 1483 1484 1485 1486 1487 1487 1487 1488 1488 1489 1490 1490 1491 1491 1492 1493 1493 1494 1494 1495 1495 1496 1496 1496 1496 1497 1497 1498 1498 1498 1499 1499 1500 1500
1474 1474 1475 1475 1476 1476 1477 1476 1477 1474 1476 1477 1478 1479 1480 1481 1482 1483 1484 1484 1485 1485 1485 1486 1487 1487 1488 1488 1489 1489 1490 1491 1491 1491 1492 1492 1493 1493 1493 1494 1494 1494 1495 1495 1496 1496 1496 1497 1497
1475 1475 1473 1472 1473 1474 1476 1475 1472 1473 1474 1475 1476 1477 1478 1479 1480 1481 1481 1482 1482 1482 1483 1483 1484 1485 1485 1485 1486 1487 1487 1488 1488 1488 1489 1489 1490 1490 1491 1491 1491 1491 1492 1492 1492 1493 1493 1493 1493
1475 1475 1474 1470 1471 1472 1478 1474 1469 1470 1472 1473 1474 1474 1476 1477 1478 1478 1479 1479 1480 1480 1480 1480 1481 1482 1482 1482 1483 1483 1484 1484 1485 1485 1486 1486 1487 1487 1487 1487 1488 1488 1489 1489 1489 1489 1489 1490 1489
1474 1475 1471 1470 1469 1470 1473 1470 1467 1468 1470 1471 1471 1472 1473 1474 1475 1476 1476 1477 1477 1477 1477 1477 1478 1478 1479 1480 1480 1481 1481 1481 1482 1482 1483 1483 1483 1483 1484 1484 1485 1485 1485 1485 1486 1486 1485 1485 1485
1475 1473 1469 1469 1469 1470 1471 1468 1466 1466 1467 1468 1469 1470 1471 1472 1472 1473 1474 1474 1474 1474 1474 1475 1475 1475 1476 1477 1477 1478 1478 1478 1478 1479 1479 1479 1479 1480 1480 1481 1481 1481 1482 1482 1482 1482 1482 1482 1482
1471 1471 1470 1467 1468 1470 1469 1466 1464 1464 1465 1465 1467 1467 1468 1469 1470 1471 1471 1471 1472 1472 1471 1472 1472 1472 1473 1473 1474 1474 1474 1474 1475 1475 1475 1476 1476 1476 1477 1477 1478 1478 1478 1478 1479 1479 1479 1479 1478
1471 1472 1470 1468 1467 1469 1468 1465 1461 1461 1461 1462 1463 1464 1465 1466 1467 1468 1469 1469 1469 1469 1469 1469 1469 1470 1470 1470 1471 1472 1472 1472 1472 1472 1472 1473 1473 1473 1473 1473 1474 1474 1474 1475 1475 1475 1475 1475 1475
1471 1472 1472 1472 1470 1468 1469 1464 1458 1456 1457 1459 1461 1462 1463 1463 1464 1465 1466 1466 1466 1466 1466 1466 1467 1467 1467 1467 1468 1468 1468 1468 1468 1469 1469 1469 1469 1469 1470 1470 1470 1470 1470 1471 1471 1471 1471 1471 1472
1473 1469 1470 1471 1475 1474 1470 1471 1456 1454 1455 1456 1458 1459 1460 1462 1463 1463 1463 1464 1463 1463 1463 1464 1464 1464 1463 1464 1464 1464 1464 1464 1465 1465 1465 1465 1466 1466 1466 1466 1466 1466 1466 1467 1467 1467 1468 1468 1468
1472 1470 1471 1471 1473 1476 1470 1473 1459 1452 1454 1454 1456 1457 1459 1460 1461 1461 1461 1461 1460 1460 1461 1461 1461 1461 1460 1460 1461 1461 1461 1461 1462 1462 1462 1462 1462 1462 1462 1462 1462 1462 1462 1463 1463 1463 1464 1464 1464
1471 1471 1470 1471 1474 1478 1466 1468 1459 1452 1450 1450 1453 1455 1457 1458 1459 1459 1459 1459 1458 1458 1458 1458 1458 1458 1457 1457 1457 1458 1458 1458 1458 1458 1458 1458 1458 1458 1459 1458 1458 1458 1458 1459 1459 1459 1459 1459 1460
1473 1476 1478 1476 1476 1469 1458 1461 1457 1450 1447 1448 1451 1453 1455 1456 1457 1457 1457 1456 1456 1455 1455 1455 1455 1455 1455 1454 1454 1454 1455 1455 1455 1455 1455 1455 1455 1455 1455 1454 1454 1454 1454 1455 1455 1455 1455 1455 1455
1474 1475 1480 1479 1471 1463 1460 1460 1453 1449 1448 1448 1450 1452 1454 1455 1456 1456 1455 1455 1454 1453 1453 1453 1453 1453 1452 1452 1452 1451 1452 1452 1451 1452 1452 1451 1451 1451 1451 1451 1451 1451 1451 1450 1450 1451 1451 1451 1451
1474 1476 1475 1478 1476 1475 1462 1452 1451 1449 1449 1450 1451 1452 1453 1454 1454 1454 1454 1453 1452 1452 1451 1450 1450 1450 1450 1449 1449 1448 1449 1448 1448 1448 1448 1448 1448 1448 1448 1448 1447 1447 1447 1446 1446 1446 1447 1447 1446
1475 1474 1477 1479 1476 1469 1455 1452 1453 1452 1451 1451 1451 1451 1452 1453 1453 1453 1452 1451 1450 1450 1449 1449 1448 1448 1448 1447 1446 1446 1446 1446 1445 1445 1445 1445 1445 1445 1444 1444 1444 1443 1443 1442 1442 1443 1442 1442 1442
1476 1476 1476 1475 1473 1471 1465 1457 1448 1449 1449 1450 1450 1451 1451 1451 1451 1451 1450 1450 1449 1448 1447 1447 1446 1446 1445 1445 1444 1443 1443 1442 1442 1442 1442 1441 1441 1441 1441 1440 1440 1439 1439 1438 1439 1438 1438 1438 1438
1471 1472 1475 1478 1475 1469 1468 1462 1449 1448 1447 1448 1449 1450 1450 1449 1449 1449 1449 1448 1447 1446 1445 1445 1444 1443 1443 1442 1441 1441 1440 1440 1439 1439 1439 1438 1438 1437 1437 1436 1436 1436 1435 1435 1435 1435 1434 1434 1433